When you browse on this site, cookies collect data to enhance your experience and personalize the content and advertising you see.
Visit our Privacy Policy to learn more. By continuing to use the site, you agree to this use of cookies and data.
  • în România
  • Lista ţărilor
  • Pe 7 zile
  • Temperatura apei
  • Hartă satelitară
  • Meteo pe hartă
  • Widget-uri
  • user-avatar
    Intrare

    Meteo pe oră la Dęblin

    Astăzi, 21 Mai, Marţi

    Timp Temperatura Precipitaţii Vânt Presiune Umiditate
    00:00 +15°C° 0 mm 2 m/s 744 mmHg 91%
    01:00 +15°C° 0 mm 2 m/s 744 mmHg 91%
    02:00 +15°C° 0 mm 2 m/s 744 mmHg 91%
    03:00 +15°C° 0 mm 2 m/s 744 mmHg 91%
    04:00 +15°C° 0 mm 2 m/s 744 mmHg 92%
    05:00 +16°C° 0.2 mm 2 m/s 743 mmHg 90%
    06:00 +17°C° 0.2 mm 2 m/s 743 mmHg 87%
    07:00 +18°C° 0.2 mm 2 m/s 743 mmHg 85%
    08:00 +18°C° 0.3 mm 2 m/s 743 mmHg 85%
    09:00 +19°C° 0.3 mm 3 m/s 743 mmHg 85%
    10:00 +19°C° 0.3 mm 4 m/s 743 mmHg 85%
    11:00 +20°C° 0.6 mm 4 m/s 742 mmHg 82%
    12:00 +20°C° 0.6 mm 5 m/s 742 mmHg 79%
    13:00 +21°C° 0.6 mm 6 m/s 742 mmHg 75%
    14:00 +21°C° 0.5 mm 6 m/s 742 mmHg 75%
    15:00 +21°C° 0.5 mm 6 m/s 741 mmHg 75%
    16:00 +20°C° 0.5 mm 6 m/s 741 mmHg 75%
    17:00 +19°C° 0 mm 6 m/s 741 mmHg 78%
    18:00 +16°C° 0 mm 6 m/s 741 mmHg 81%
    19:00 +14°C° 0 mm 5 m/s 741 mmHg 84%
    20:00 +14°C° 0 mm 5 m/s 741 mmHg 85%
    21:00 +14°C° 0 mm 5 m/s 741 mmHg 85%
    22:00 +14°C° 0 mm 5 m/s 741 mmHg 85%
    23:00 +14°C° 0 mm 5 m/s 742 mmHg 87%

    Mâine, 22 Mai, Miercuri

    Timp Temperatura Precipitaţii Vânt Presiune Umiditate
    00:00 +14°C° 0 mm 5 m/s 742 mmHg 88%
    01:00 +14°C° 0 mm 4 m/s 742 mmHg 90%
    02:00 +14°C° 0.1 mm 4 m/s 742 mmHg 91%
    03:00 +14°C° 0.1 mm 3 m/s 742 mmHg 93%
    04:00 +14°C° 0.1 mm 3 m/s 742 mmHg 94%
    05:00 +14°C° 0.2 mm 3 m/s 742 mmHg 92%
    06:00 +16°C° 0.2 mm 3 m/s 742 mmHg 90%
    07:00 +15°C° 0.2 mm 4 m/s 742 mmHg 89%
    08:00 +17°C° 0.5 mm 4 m/s 742 mmHg 85%
    09:00 +17°C° 0.5 mm 5 m/s 743 mmHg 82%
    10:00 +19°C° 0.5 mm 5 m/s 743 mmHg 79%
    11:00 +19°C° 0.4 mm 5 m/s 743 mmHg 79%
    12:00 +17°C° 0.4 mm 5 m/s 743 mmHg 80%
    13:00 +17°C° 0.4 mm 5 m/s 743 mmHg 81%
    14:00 +18°C° 0.3 mm 4 m/s 743 mmHg 79%
    15:00 +19°C° 0.3 mm 4 m/s 743 mmHg 77%
    16:00 +19°C° 0.3 mm 4 m/s 743 mmHg 75%
    17:00 +18°C° 0 mm 3 m/s 743 mmHg 79%
    18:00 +17°C° 0 mm 3 m/s 743 mmHg 83%
    19:00 +17°C° 0 mm 2 m/s 743 mmHg 88%
    20:00 +16°C° 0 mm 2 m/s 744 mmHg 90%
    21:00 +15°C° 0 mm 2 m/s 744 mmHg 92%
    22:00 +14°C° 0 mm 1 m/s 744 mmHg 95%
    23:00 +14°C° 0 mm 1 m/s 745 mmHg 95%

    Poimâine, 23 Mai, Joi

    Timp Temperatura Precipitaţii Vânt Presiune Umiditate
    00:00 +13°C° 0 mm 1 m/s 745 mmHg 95%
    01:00 +13°C° 0 mm 1 m/s 745 mmHg 96%
    02:00 +13°C° 0 mm 1 m/s 745 mmHg 96%
    03:00 +13°C° 0 mm 2 m/s 745 mmHg 96%
    04:00 +13°C° 0 mm 2 m/s 746 mmHg 96%
    05:00 +14°C° 0 mm 2 m/s 746 mmHg 92%
    06:00 +16°C° 0 mm 3 m/s 746 mmHg 89%
    07:00 +17°C° 0 mm 3 m/s 747 mmHg 85%
    08:00 +18°C° 0.5 mm 3 m/s 747 mmHg 84%
    09:00 +18°C° 0.5 mm 4 m/s 747 mmHg 83%
    10:00 +19°C° 0.5 mm 5 m/s 748 mmHg 82%
    11:00 +17°C° 0.9 mm 5 m/s 748 mmHg 84%
    12:00 +17°C° 0.9 mm 6 m/s 748 mmHg 85%
    13:00 +16°C° 0.9 mm 7 m/s 748 mmHg 87%
    14:00 +16°C° 0.1 mm 7 m/s 748 mmHg 88%
    15:00 +15°C° 0.1 mm 7 m/s 748 mmHg 88%
    16:00 +14°C° 0.1 mm 6 m/s 749 mmHg 89%
    17:00 +14°C° 0.1 mm 6 m/s 749 mmHg 89%
    18:00 +13°C° 0.1 mm 6 m/s 749 mmHg 89%
    19:00 +13°C° 0.1 mm 5 m/s 749 mmHg 89%
    20:00 +12°C° 0 mm 5 m/s 749 mmHg 86%
    21:00 +12°C° 0 mm 5 m/s 750 mmHg 84%
    22:00 +11°C° 0 mm 4 m/s 750 mmHg 82%
    23:00 +11°C° 0 mm 4 m/s 750 mmHg 79%

    24 Mai, Vineri

    Timp Temperatura Precipitaţii Vânt Presiune Umiditate
    00:00 +10°C° 0 mm 4 m/s 750 mmHg 75%
    01:00 +10°C° 0 mm 4 m/s 750 mmHg 72%
    02:00 +8°C° 0 mm 4 m/s 750 mmHg 74%
    03:00 +8°C° 0 mm 4 m/s 750 mmHg 75%
    04:00 +8°C° 0 mm 3 m/s 750 mmHg 77%
    05:00 +8°C° 0 mm 4 m/s 750 mmHg 74%
    06:00 +10°C° 0 mm 4 m/s 750 mmHg 72%
    07:00 +12°C° 0 mm 4 m/s 750 mmHg 69%
    08:00 +13°C° 0 mm 4 m/s 750 mmHg 65%
    09:00 +15°C° 0 mm 4 m/s 750 mmHg 61%
    10:00 +17°C° 0 mm 4 m/s 750 mmHg 56%
    11:00 +18°C° 0 mm 4 m/s 749 mmHg 55%
    12:00 +19°C° 0 mm 4 m/s 749 mmHg 53%
    13:00 +19°C° 0 mm 4 m/s 748 mmHg 52%
    14:00 +20°C° 0 mm 4 m/s 748 mmHg 53%
    15:00 +20°C° 0 mm 4 m/s 748 mmHg 54%
    16:00 +20°C° 0 mm 4 m/s 748 mmHg 55%
    17:00 +18°C° 0 mm 3 m/s 747 mmHg 61%
    18:00 +17°C° 0 mm 3 m/s 747 mmHg 67%
    19:00 +16°C° 0 mm 2 m/s 747 mmHg 73%
    20:00 +14°C° 0 mm 2 m/s 747 mmHg 75%
    21:00 +13°C° 0 mm 2 m/s 747 mmHg 77%
    22:00 +12°C° 0 mm 2 m/s 747 mmHg 79%
    23:00 +12°C° 0 mm 2 m/s 747 mmHg 80%

    25 Mai, Sâmbătă

    Timp Temperatura Precipitaţii Vânt Presiune Umiditate
    00:00 +12°C° 0 mm 2 m/s 747 mmHg 81%
    01:00 +12°C° 0 mm 1 m/s 747 mmHg 83%
    02:00 +11°C° 0 mm 1 m/s 747 mmHg 85%
    03:00 +11°C° 0 mm 1 m/s 747 mmHg 88%
    04:00 +10°C° 0 mm 1 m/s 747 mmHg 90%
    05:00 +12°C° 0 mm 1 m/s 747 mmHg 84%
    06:00 +14°C° 0 mm 1 m/s 747 mmHg 77%
    07:00 +16°C° 0 mm 1 m/s 747 mmHg 71%
    08:00 +19°C° 0 mm 1 m/s 747 mmHg 65%
    09:00 +20°C° 0 mm 1 m/s 747 mmHg 59%
    10:00 +20°C° 0 mm 2 m/s 747 mmHg 53%
    11:00 +21°C° 0 mm 2 m/s 747 mmHg 51%
    12:00 +21°C° 0 mm 2 m/s 747 mmHg 49%
    13:00 +23°C° 0 mm 2 m/s 746 mmHg 47%
    14:00 +22°C° 0 mm 3 m/s 746 mmHg 49%
    15:00 +22°C° 0 mm 3 m/s 746 mmHg 50%
    16:00 +22°C° 0 mm 3 m/s 746 mmHg 52%
    17:00 +20°C° 0.3 mm 3 m/s 746 mmHg 63%
    18:00 +19°C° 0.3 mm 3 m/s 746 mmHg 74%
    19:00 +17°C° 0.3 mm 2 m/s 746 mmHg 85%
    20:00 +16°C° 0 mm 2 m/s 746 mmHg 87%
    21:00 +15°C° 0 mm 2 m/s 746 mmHg 90%
    22:00 +14°C° 0 mm 1 m/s 746 mmHg 93%
    23:00 +14°C° 0 mm 2 m/s 747 mmHg 94%

    26 Mai, Duminică

    Timp Temperatura Precipitaţii Vânt Presiune Umiditate
    00:00 +13°C° 0 mm 2 m/s 747 mmHg 95%
    01:00 +13°C° 0 mm 2 m/s 747 mmHg 96%
    02:00 +13°C° 0 mm 2 m/s 747 mmHg 96%
    03:00 +12°C° 0 mm 3 m/s 748 mmHg 96%
    04:00 +12°C° 0 mm 3 m/s 748 mmHg 96%
    05:00 +12°C° 0 mm 3 m/s 748 mmHg 92%
    06:00 +12°C° 0 mm 3 m/s 748 mmHg 88%
    07:00 +12°C° 0 mm 3 m/s 749 mmHg 83%
    08:00 +14°C° 0 mm 4 m/s 749 mmHg 76%
    09:00 +15°C° 0 mm 4 m/s 749 mmHg 68%
    10:00 +16°C° 0 mm 5 m/s 749 mmHg 61%
    11:00 +16°C° 0 mm 5 m/s 749 mmHg 61%
    12:00 +17°C° 0 mm 4 m/s 749 mmHg 62%
    13:00 +17°C° 0 mm 4 m/s 749 mmHg 62%
    14:00 +17°C° 0 mm 4 m/s 749 mmHg 62%
    15:00 +17°C° 0 mm 4 m/s 749 mmHg 61%
    16:00 +17°C° 0 mm 4 m/s 749 mmHg 61%
    17:00 +16°C° 0 mm 3 m/s 749 mmHg 65%
    18:00 +15°C° 0 mm 2 m/s 749 mmHg 70%
    19:00 +15°C° 0 mm 1 m/s 749 mmHg 75%
    20:00 +14°C° 0 mm 1 m/s 749 mmHg 78%
    21:00 +13°C° 0 mm 1 m/s 749 mmHg 81%
    22:00 +12°C° 0 mm 2 m/s 749 mmHg 84%
    23:00 +10°C° 0 mm 2 m/s 749 mmHg 86%
    Arată mai mult